When you browse on this site, cookies collect data to enhance your experience and personalize the content and advertising you see.
Visit our Privacy Policy to learn more. By continuing to use the site, you agree to this use of cookies and data.
  • In Romania
  • List of Countries
  • For 7 days
  • Water Temperature
  • Satellite Maps
  • Weather Map
  • Weather Widgets
  • user-avatar
    Login

    Hourly Weather Karamyshevo

    Today, 21 April, Sunday

    Time Temperature Precipitation Wind Pressure Humidity
    00:00 +3°C° 0 mm 1 mps 754 mmHg 92%
    01:00 +2°C° 0 mm 1 mps 754 mmHg 93%
    02:00 +2°C° 0 mm 1 mps 754 mmHg 94%
    03:00 +2°C° 0 mm 1 mps 755 mmHg 95%
    04:00 +2°C° 0 mm 1 mps 755 mmHg 95%
    05:00 +2°C° 0 mm 1 mps 755 mmHg 96%
    06:00 +4°C° 0 mm 1 mps 755 mmHg 89%
    07:00 +6°C° 0 mm 1 mps 755 mmHg 82%
    08:00 +8°C° 0 mm 1 mps 756 mmHg 75%
    09:00 +10°C° 0 mm 1 mps 756 mmHg 68%
    10:00 +11°C° 0 mm 1 mps 756 mmHg 61%
    11:00 +13°C° 0 mm 1 mps 756 mmHg 54%
    12:00 +13°C° 0 mm 0 mps 756 mmHg 52%
    13:00 +13°C° 0 mm 0 mps 755 mmHg 49%
    14:00 +14°C° 0 mm 0 mps 755 mmHg 46%
    15:00 +14°C° 0 mm 1 mps 755 mmHg 48%
    16:00 +14°C° 0 mm 1 mps 755 mmHg 49%
    17:00 +13°C° 0 mm 1 mps 755 mmHg 51%
    18:00 +12°C° 0 mm 1 mps 755 mmHg 57%
    19:00 +10°C° 0 mm 1 mps 755 mmHg 63%
    20:00 +8°C° 0 mm 1 mps 755 mmHg 69%
    21:00 +7°C° 0 mm 0 mps 755 mmHg 71%
    22:00 +6°C° 0 mm 0 mps 755 mmHg 73%
    23:00 +6°C° 0 mm 0 mps 755 mmHg 75%

    Tomorrow, 22 April, Monday

    Time Temperature Precipitation Wind Pressure Humidity
    00:00 +6°C° 0 mm 0 mps 756 mmHg 77%
    01:00 +5°C° 0 mm 0 mps 756 mmHg 79%
    02:00 +6°C° 0 mm 1 mps 756 mmHg 81%
    03:00 +6°C° 0 mm 1 mps 756 mmHg 82%
    04:00 +6°C° 0 mm 1 mps 756 mmHg 82%
    05:00 +6°C° 0 mm 1 mps 756 mmHg 83%
    06:00 +8°C° 0 mm 1 mps 756 mmHg 76%
    07:00 +10°C° 0 mm 1 mps 756 mmHg 68%
    08:00 +12°C° 0 mm 1 mps 756 mmHg 60%
    09:00 +13°C° 0 mm 2 mps 756 mmHg 55%
    10:00 +14°C° 0 mm 2 mps 756 mmHg 49%
    11:00 +16°C° 0 mm 2 mps 756 mmHg 44%
    12:00 +16°C° 0 mm 2 mps 756 mmHg 42%
    13:00 +17°C° 0 mm 3 mps 755 mmHg 41%
    14:00 +17°C° 0 mm 3 mps 755 mmHg 40%
    15:00 +17°C° 0 mm 3 mps 755 mmHg 42%
    16:00 +17°C° 0 mm 2 mps 755 mmHg 44%
    17:00 +16°C° 0 mm 2 mps 754 mmHg 47%
    18:00 +15°C° 0 mm 2 mps 754 mmHg 53%
    19:00 +13°C° 0 mm 2 mps 754 mmHg 60%
    20:00 +10°C° 0 mm 2 mps 754 mmHg 67%
    21:00 +9°C° 0 mm 2 mps 755 mmHg 69%
    22:00 +9°C° 0 mm 2 mps 755 mmHg 72%
    23:00 +8°C° 0 mm 2 mps 755 mmHg 74%

    Day after tomorrow, 23 April, Tuesday

    Time Temperature Precipitation Wind Pressure Humidity
    00:00 +8°C° 0 mm 2 mps 755 mmHg 75%
    01:00 +8°C° 0 mm 2 mps 755 mmHg 76%
    02:00 +8°C° 0 mm 2 mps 755 mmHg 77%
    03:00 +8°C° 0 mm 2 mps 755 mmHg 77%
    04:00 +8°C° 0 mm 2 mps 755 mmHg 77%
    05:00 +8°C° 0 mm 2 mps 756 mmHg 77%
    06:00 +9°C° 0 mm 3 mps 756 mmHg 70%
    07:00 +11°C° 0 mm 3 mps 756 mmHg 64%
    08:00 +12°C° 0 mm 4 mps 756 mmHg 58%
    09:00 +13°C° 0 mm 4 mps 756 mmHg 52%
    10:00 +15°C° 0 mm 4 mps 756 mmHg 46%
    11:00 +16°C° 0 mm 5 mps 756 mmHg 40%
    12:00 +16°C° 0 mm 5 mps 756 mmHg 40%
    13:00 +18°C° 0 mm 4 mps 756 mmHg 39%
    14:00 +18°C° 0 mm 4 mps 755 mmHg 39%
    15:00 +18°C° 0 mm 4 mps 755 mmHg 40%
    16:00 +18°C° 0 mm 3 mps 755 mmHg 42%
    17:00 +18°C° 0 mm 3 mps 755 mmHg 44%
    18:00 +16°C° 0 mm 3 mps 755 mmHg 50%
    19:00 +14°C° 0 mm 2 mps 755 mmHg 56%
    20:00 +12°C° 0 mm 2 mps 755 mmHg 62%
    21:00 +10°C° 0 mm 2 mps 755 mmHg 65%
    22:00 +10°C° 0 mm 2 mps 755 mmHg 68%
    23:00 +9°C° 0 mm 2 mps 755 mmHg 71%

    24 April, Wednesday

    Time Temperature Precipitation Wind Pressure Humidity
    00:00 +8°C° 0 mm 2 mps 755 mmHg 72%
    01:00 +8°C° 0 mm 2 mps 756 mmHg 73%
    02:00 +7°C° 0 mm 2 mps 756 mmHg 74%
    03:00 +7°C° 0 mm 2 mps 756 mmHg 73%
    04:00 +7°C° 0 mm 2 mps 756 mmHg 73%
    05:00 +7°C° 0 mm 2 mps 756 mmHg 72%
    06:00 +9°C° 0 mm 3 mps 756 mmHg 65%
    07:00 +11°C° 0 mm 3 mps 756 mmHg 58%
    08:00 +13°C° 0 mm 3 mps 756 mmHg 52%
    09:00 +14°C° 0 mm 3 mps 756 mmHg 47%
    10:00 +17°C° 0 mm 3 mps 756 mmHg 43%
    11:00 +18°C° 0 mm 4 mps 756 mmHg 39%
    12:00 +19°C° 0 mm 4 mps 756 mmHg 38%
    13:00 +19°C° 0 mm 4 mps 756 mmHg 37%
    14:00 +20°C° 0 mm 3 mps 755 mmHg 36%
    15:00 +19°C° 0 mm 3 mps 755 mmHg 38%
    16:00 +19°C° 0 mm 3 mps 755 mmHg 41%
    17:00 +18°C° 0 mm 2 mps 755 mmHg 43%
    18:00 +16°C° 0 mm 2 mps 755 mmHg 49%
    19:00 +15°C° 0 mm 2 mps 755 mmHg 55%
    20:00 +13°C° 0 mm 1 mps 755 mmHg 61%
    21:00 +12°C° 0 mm 1 mps 755 mmHg 63%
    22:00 +11°C° 0 mm 1 mps 755 mmHg 65%
    23:00 +10°C° 0 mm 1 mps 755 mmHg 67%

    25 April, Thursday

    Time Temperature Precipitation Wind Pressure Humidity
    00:00 +10°C° 0 mm 1 mps 755 mmHg 68%
    01:00 +8°C° 0 mm 0 mps 755 mmHg 68%
    02:00 +8°C° 0 mm 0 mps 755 mmHg 69%
    03:00 +8°C° 0 mm 0 mps 755 mmHg 70%
    04:00 +9°C° 0 mm 1 mps 755 mmHg 70%
    05:00 +9°C° 0 mm 1 mps 755 mmHg 71%
    06:00 +11°C° 0 mm 1 mps 755 mmHg 64%
    07:00 +13°C° 0 mm 1 mps 755 mmHg 58%
    08:00 +16°C° 0 mm 1 mps 755 mmHg 51%
    09:00 +18°C° 0 mm 1 mps 755 mmHg 46%
    10:00 +19°C° 0 mm 2 mps 755 mmHg 41%
    11:00 +20°C° 0 mm 2 mps 754 mmHg 36%
    12:00 +20°C° 0 mm 2 mps 754 mmHg 36%
    13:00 +21°C° 0 mm 2 mps 754 mmHg 36%
    14:00 +21°C° 0 mm 2 mps 753 mmHg 36%
    15:00 +20°C° 0 mm 2 mps 753 mmHg 41%
    16:00 +19°C° 0 mm 2 mps 752 mmHg 46%
    17:00 +19°C° 0 mm 1 mps 752 mmHg 51%
    18:00 +18°C° 0 mm 1 mps 751 mmHg 53%
    19:00 +16°C° 0 mm 1 mps 751 mmHg 55%
    20:00 +16°C° 0 mm 1 mps 751 mmHg 57%
    21:00 +15°C° 0 mm 1 mps 751 mmHg 59%
    22:00 +14°C° 0 mm 1 mps 750 mmHg 62%
    23:00 +13°C° 0 mm 2 mps 750 mmHg 64%

    26 April, Friday

    Time Temperature Precipitation Wind Pressure Humidity
    00:00 +12°C° 0 mm 2 mps 750 mmHg 66%
    01:00 +12°C° 0 mm 2 mps 750 mmHg 69%
    02:00 +10°C° 0 mm 2 mps 749 mmHg 72%
    03:00 +9°C° 0 mm 2 mps 749 mmHg 72%
    04:00 +9°C° 0 mm 2 mps 749 mmHg 73%
    05:00 +9°C° 0 mm 2 mps 748 mmHg 74%
    06:00 +12°C° 0 mm 2 mps 748 mmHg 68%
    07:00 +14°C° 0 mm 2 mps 748 mmHg 62%
    08:00 +16°C° 0 mm 3 mps 747 mmHg 55%
    09:00 +16°C° 0.1 mm 3 mps 747 mmHg 55%
    10:00 +17°C° 0.1 mm 3 mps 746 mmHg 54%
    11:00 +17°C° 0.1 mm 3 mps 746 mmHg 53%
    12:00 +18°C° 0 mm 4 mps 745 mmHg 52%
    13:00 +18°C° 0 mm 4 mps 745 mmHg 51%
    14:00 +17°C° 0 mm 5 mps 744 mmHg 50%
    15:00 +18°C° 0 mm 4 mps 744 mmHg 53%
    16:00 +18°C° 0 mm 3 mps 744 mmHg 56%
    17:00 +17°C° 0 mm 3 mps 743 mmHg 59%
    18:00 +16°C° 0 mm 3 mps 743 mmHg 67%
    19:00 +13°C° 0 mm 3 mps 743 mmHg 75%
    20:00 +12°C° 0 mm 3 mps 742 mmHg 82%
    21:00 +11°C° 0 mm 3 mps 742 mmHg 86%
    22:00 +12°C° 0 mm 2 mps 742 mmHg 89%
    23:00 +10°C° 0 mm 2 mps 741 mmHg 93%
    Show more